TimeCST,TemperatureF,Dew PointF,Humidity,Sea Level PressureIn,VisibilityMPH,Wind Direction,Wind SpeedMPH,Gust SpeedMPH,PrecipitationIn,Events,Conditions,WindDirDegrees,DateUTC
12:35 AM,30.2,26.6,86,29.54,7.0,North,20.7,-,N/A,Rain,Freezing Rain,350,2013-01-30 06:35:00
12:55 AM,30.2,26.6,86,29.54,10.0,North,23.0,29.9,N/A,,Overcast,360,2013-01-30 06:55:00
1:15 AM,30.2,24.8,80,29.55,10.0,North,23.0,31.1,N/A,,Overcast,360,2013-01-30 07:15:00
1:35 AM,30.2,24.8,80,29.54,10.0,North,21.9,-,N/A,,Overcast,360,2013-01-30 07:35:00
1:55 AM,30.2,24.8,80,29.55,10.0,North,23.0,-,N/A,Rain,Freezing Rain,10,2013-01-30 07:55:00
2:15 AM,30.2,24.8,80,29.54,10.0,North,23.0,29.9,N/A,,Freezing Rain,360,2013-01-30 08:15:00
2:35 AM,30.2,24.8,80,29.54,10.0,North,19.6,26.5,N/A,,Overcast,360,2013-01-30 08:35:00
2:55 AM,30.2,24.8,80,29.55,10.0,North,19.6,26.5,N/A,,Freezing Rain,360,2013-01-30 08:55:00
3:15 AM,30.2,23.0,75,29.54,10.0,North,25.3,31.1,N/A,,Overcast,360,2013-01-30 09:15:00
3:35 AM,28.4,24.8,86,29.53,10.0,North,25.3,31.1,N/A,,Overcast,350,2013-01-30 09:35:00
3:55 AM,28.4,23.0,80,29.52,10.0,North,26.5,32.2,N/A,,Overcast,350,2013-01-30 09:55:00
4:15 AM,28.4,24.8,86,29.50,10.0,North,20.7,33.4,N/A,,Overcast,350,2013-01-30 10:15:00
4:35 AM,28.4,24.8,86,29.50,10.0,North,26.5,33.4,N/A,,Overcast,360,2013-01-30 10:35:00
4:55 AM,28.4,24.8,86,29.49,3.0,North,25.3,31.1,N/A,Rain,Freezing Rain,350,2013-01-30 10:55:00
5:15 AM,26.6,23.0,86,29.48,3.0,North,20.7,31.1,N/A,Rain,Freezing Rain,360,2013-01-30 11:15:00
5:35 AM,26.6,23.0,86,29.48,2.0,North,28.8,34.5,N/A,Rain,Freezing Rain,350,2013-01-30 11:35:00
6:15 AM,24.8,21.2,86,29.51,3.0,NNW,20.7,33.4,N/A,Snow,Light Snow,340,2013-01-30 12:15:00
6:35 AM,24.8,21.2,86,29.51,2.0,NNW,26.5,33.4,N/A,Snow,Light Snow,340,2013-01-30 12:35:00
6:55 AM,23.0,21.2,93,29.52,0.2,NNW,27.6,34.5,N/A,Snow,Snow,340,2013-01-30 12:55:00
7:15 AM,23.0,21.2,93,29.52,0.2,North,26.5,34.5,N/A,Snow,Heavy Snow,350,2013-01-30 13:15:00
7:35 AM,23.0,19.4,86,29.53,0.2,North,23.0,35.7,N/A,Snow,Snow,350,2013-01-30 13:35:00
7:55 AM,23.0,19.4,86,29.55,0.2,NNW,26.5,33.4,N/A,Snow,Light Snow,340,2013-01-30 13:55:00
8:15 AM,23.0,19.4,86,29.55,0.2,NNW,24.2,32.2,N/A,Snow,Snow,340,2013-01-30 14:15:00
8:35 AM,23.0,19.4,86,29.55,0.2,NNW,21.9,29.9,N/A,Snow,Light Snow,340,2013-01-30 14:35:00
8:55 AM,23.0,19.4,86,29.55,0.2,NNW,24.2,31.1,N/A,Snow,Light Snow,340,2013-01-30 14:55:00
9:15 AM,23.0,19.4,86,29.54,0.2,NNW,21.9,28.8,N/A,Snow,Light Snow,340,2013-01-30 15:15:00
9:35 AM,23.0,19.4,86,29.54,0.5,NNW,23.0,31.1,N/A,Snow,Light Snow,330,2013-01-30 15:35:00
9:55 AM,23.0,19.4,86,29.54,0.5,NNW,20.7,31.1,N/A,Snow,Light Snow,330,2013-01-30 15:55:00
10:15 AM,23.0,19.4,86,29.53,0.5,NNW,24.2,32.2,N/A,Snow,Light Snow,330,2013-01-30 16:15:00
10:35 AM,23.0,19.4,86,29.54,0.5,NNW,23.0,34.5,N/A,Snow,Light Snow,330,2013-01-30 16:35:00
10:55 AM,21.2,17.6,86,29.54,0.8,NNW,29.9,-,N/A,Snow,Light Snow,330,2013-01-30 16:55:00
11:15 AM,21.2,15.8,80,29.55,0.8,NW,29.9,38.0,N/A,Snow,Light Snow,320,2013-01-30 17:15:00
11:35 AM,21.2,15.8,80,29.56,1.0,NW,24.2,34.5,N/A,Snow,Light Snow,320,2013-01-30 17:35:00
11:55 AM,19.4,15.8,86,29.56,0.5,NW,24.2,35.7,N/A,Snow,Light Snow,310,2013-01-30 17:55:00
12:15 PM,19.4,14.0,80,29.56,-9999.0,NW,25.3,-,N/A,Snow,Light Snow,320,2013-01-30 18:15:00
12:35 PM,19.4,14.0,80,29.56,1.0,NW,23.0,29.9,N/A,Snow,Light Snow,310,2013-01-30 18:35:00
12:55 PM,19.4,14.0,80,29.57,1.5,NW,24.2,34.5,N/A,Snow,Light Snow,310,2013-01-30 18:55:00
1:15 PM,19.4,14.0,80,29.56,1.2,NW,27.6,34.5,N/A,Snow,Light Snow,310,2013-01-30 19:15:00
1:35 PM,19.4,12.2,74,29.56,1.0,NW,26.5,36.8,N/A,Snow,Light Snow,320,2013-01-30 19:35:00
1:55 PM,19.4,12.2,74,29.57,2.5,NW,24.2,33.4,N/A,Rain,Freezing Rain,320,2013-01-30 19:55:00
2:15 PM,17.6,12.2,79,29.57,2.0,NW,27.6,34.5,N/A,Rain,Freezing Rain,310,2013-01-30 20:15:00
2:35 PM,17.6,10.4,73,29.58,2.5,NW,25.3,36.8,N/A,Rain,Freezing Rain,310,2013-01-30 20:35:00
2:55 PM,17.6,12.2,79,29.58,1.8,NW,25.3,38.0,N/A,Rain,Freezing Rain,320,2013-01-30 20:55:00
3:15 PM,17.6,10.4,73,29.59,3.0,NW,25.3,35.7,N/A,Rain,Freezing Rain,320,2013-01-30 21:15:00
3:35 PM,17.6,10.4,73,29.60,3.0,NW,29.9,-,N/A,Rain,Freezing Rain,310,2013-01-30 21:35:00
3:55 PM,17.6,10.4,73,29.61,3.0,NW,25.3,35.7,N/A,Snow,Light Snow,320,2013-01-30 21:55:00
4:15 PM,17.6,10.4,73,29.60,1.5,NW,29.9,35.7,N/A,Snow,Light Snow,310,2013-01-30 22:15:00
4:35 PM,17.6,10.4,73,29.61,5.0,NW,23.0,32.2,N/A,Snow,Light Snow,310,2013-01-30 22:35:00
4:55 PM,17.6,8.6,68,29.63,8.0,NW,25.3,31.1,N/A,Snow,Light Snow,310,2013-01-30 22:55:00
5:15 PM,15.8,10.4,79,29.63,1.5,NW,25.3,33.4,N/A,Snow,Light Snow,320,2013-01-30 23:15:00
5:35 PM,15.8,8.6,73,29.64,2.0,NW,24.2,35.7,N/A,Snow,Light Snow,320,2013-01-30 23:35:00
5:55 PM,15.8,8.6,73,29.65,2.0,NW,25.3,32.2,N/A,Snow,Light Snow,320,2013-01-30 23:55:00
6:15 PM,15.8,10.4,79,29.66,3.0,NW,23.0,-,N/A,Snow,Light Snow,320,2013-01-31 00:15:00
6:35 PM,15.8,8.6,73,29.66,3.0,NW,21.9,31.1,N/A,Snow,Light Snow,310,2013-01-31 00:35:00
6:55 PM,15.8,8.6,73,29.67,5.0,NW,23.0,-,N/A,Snow,Light Snow,310,2013-01-31 00:55:00
7:15 PM,14.0,6.8,73,29.68,7.0,NW,18.4,31.1,N/A,Snow,Light Snow,310,2013-01-31 01:15:00
7:35 PM,14.0,6.8,73,29.69,9.0,NW,19.6,-,N/A,Snow,Light Snow,310,2013-01-31 01:35:00
7:55 PM,14.0,6.8,73,29.69,10.0,WNW,19.6,25.3,N/A,Snow,Light Snow,300,2013-01-31 01:55:00
8:15 PM,14.0,8.6,79,29.69,8.0,WNW,16.1,25.3,N/A,Snow,Light Snow,300,2013-01-31 02:15:00
8:35 PM,14.0,8.6,79,29.70,6.0,WNW,17.3,23.0,N/A,Snow,Light Snow,300,2013-01-31 02:35:00
8:55 PM,14.0,6.8,73,29.71,9.0,NW,17.3,29.9,N/A,Snow,Light Snow,310,2013-01-31 02:55:00
9:15 PM,14.0,6.8,73,29.71,4.0,WNW,21.9,28.8,N/A,Snow,Light Snow,300,2013-01-31 03:15:00
9:35 PM,12.2,5.0,73,29.72,-9999.0,WNW,20.7,29.9,N/A,Snow,Light Snow,300,2013-01-31 03:35:00
9:55 PM,12.2,5.0,73,29.72,6.0,WNW,23.0,31.1,N/A,Snow,Light Snow,300,2013-01-31 03:55:00
10:15 PM,12.2,5.0,73,29.73,4.0,WNW,17.3,28.8,N/A,Snow,Light Snow,300,2013-01-31 04:15:00
10:35 PM,12.2,5.0,73,29.73,5.0,NW,20.7,29.9,N/A,Snow,Light Snow,310,2013-01-31 04:35:00
10:55 PM,12.2,5.0,73,29.73,3.0,NW,20.7,-,N/A,Snow,Light Snow,310,2013-01-31 04:55:00
11:15 PM,12.2,5.0,73,29.74,4.0,WNW,20.7,27.6,N/A,Snow,Light Snow,300,2013-01-31 05:15:00
11:35 PM,12.2,3.2,67,29.75,8.0,WNW,16.1,26.5,N/A,Snow,Light Snow,300,2013-01-31 05:35:00
11:55 PM,10.4,3.2,73,29.75,8.0,WNW,20.7,28.8,N/A,Snow,Light Snow,300,2013-01-31 05:55:00